Change the Weather History Date:

Wednesday, December 26, 2012

  Actual Average (KRUG) Record (KRUG)
Temperature  
Mean Temperature -8 °F -  
Max Temperature 3 °F 17 °F 41 °F (2011)
Min Temperature -18 °F 0 °F -40 °F (1990)
Degree Days  
Heating Degree Days 72    
Moisture  
Dew Point -10 °F    
Average Humidity 84    
Maximum Humidity 92    
Minimum Humidity 76    
Precipitation  
Precipitation 0.04 in - - ()
Sea Level Pressure  
Sea Level Pressure 30.20 in    
Wind  
Wind Speed 3 mph (South)    
Max Wind Speed 8 mph    
Max Gust Speed -    
Visibility 10 miles    
Events Snow    
Averages and records for this station are not official NWS values.
T = Trace of Precipitation, MM = Missing Value Source: NWS Daily Summary

Daily Weather History Graph

Daily Weather History Graph

Search for Another Location

Airport or City:

Trip Planner

Search our weather history database for the weather conditions in past years. The results will help you decide how hot, cold, wet, or windy it might be!

Date:

Astronomy

Dec. 26, 2012 Rise Set
Actual Time 8:31 AM CST 4:47 PM CST
Civil Twilight 7:54 AM CST 5:24 PM CST
Nautical Twilight 7:13 AM CST 6:05 PM CST
Astronomical Twilight 6:35 AM CST 6:43 PM CST
Moon 3:44 PM CST (12/26) 6:53 AM CST (12/26)
Length of Visible Light 9h 30m
Length of Day
8h 15m
Waxing Gibbous, 97% of the Moon is Illuminated
Dec 26
Waxing Gibbous
Dec 28
Full
Jan 4
Last Quarter
Jan 11
New
Jan 18
First Quarter

Hourly Weather History & Observations

Time (CST) Temp. Windchill Dew Point Humidity Pressure Visibility Wind Dir Wind Speed Gust Speed Precip Events Conditions
12:15 AM -2.2 °F -14.2 °F -4.0 °F 92% 30.28 in 5.0 mi NNW 5.8 mph - 0.01 in Snow Light Snow
12:35 AM -2.2 °F -14.2 °F -7.6 °F 78% 30.27 in 5.0 mi North 5.8 mph - 0.02 in Snow Light Snow
12:55 AM -2.2 °F -10.4 °F -7.6 °F 78% 30.27 in 4.0 mi North 3.5 mph - 0.03 in Snow Light Snow
1:15 AM -4.0 °F - -7.6 °F 85% 30.26 in 7.0 mi Calm Calm - N/A Snow Light Snow
1:35 AM -4.0 °F - -7.6 °F 85% 30.25 in 10.0 mi Calm Calm - N/A   Overcast
1:55 AM -4.0 °F - -7.6 °F 85% 30.25 in 10.0 mi Calm Calm - N/A   Overcast
2:15 AM -4.0 °F -14.6 °F -9.4 °F 78% 30.24 in 10.0 mi NE 4.6 mph - N/A   Overcast
2:35 AM -4.0 °F -14.6 °F -9.4 °F 78% 30.25 in 5.0 mi NE 4.6 mph - N/A Snow Light Snow
2:55 AM -5.8 °F - -9.4 °F 84% 30.25 in 9.0 mi Calm Calm - 0.01 in Snow Light Snow
3:15 AM -7.6 °F - -11.2 °F 84% 30.24 in 10.0 mi Calm Calm - N/A   Overcast
3:35 AM -7.6 °F - -11.2 °F 84% 30.23 in 10.0 mi Calm Calm - N/A   Mostly Cloudy
3:55 AM -9.4 °F - -13.0 °F 84% 30.22 in 10.0 mi Calm Calm - N/A   Scattered Clouds
4:15 AM -13.0 °F -22.7 °F -18.4 °F 77% 30.22 in 10.0 mi North 3.5 mph - N/A   Clear
4:35 AM -14.8 °F -24.8 °F -20.2 °F 77% 30.21 in 10.0 mi North 3.5 mph - N/A   Clear
4:55 AM -14.8 °F - -18.4 °F 84% 30.22 in 10.0 mi Calm Calm - N/A   Clear
5:15 AM -16.6 °F - -20.2 °F 84% 30.22 in 10.0 mi Calm Calm - N/A   Clear
5:35 AM -16.6 °F - -22.0 °F 76% 30.21 in 10.0 mi Calm Calm - N/A   Partly Cloudy
5:55 AM -16.6 °F - -22.0 °F 76% 30.21 in 10.0 mi Calm Calm - N/A   Mostly Cloudy
6:15 AM -18.4 °F -31.4 °F -22.0 °F 84% 30.21 in 10.0 mi SSW 4.6 mph - N/A   Overcast
6:35 AM -18.4 °F -28.9 °F -22.0 °F 84% 30.22 in 10.0 mi WSW 3.5 mph - N/A   Scattered Clouds
6:55 AM -18.4 °F - -22.0 °F 84% 30.22 in 10.0 mi Calm Calm - N/A   Clear
7:15 AM -18.4 °F - -23.8 °F 76% 30.23 in 10.0 mi Calm Calm - N/A   Partly Cloudy
7:35 AM -18.4 °F -31.4 °F -22.0 °F 84% 30.22 in 10.0 mi South 4.6 mph - N/A   Mostly Cloudy
7:55 AM -18.4 °F -31.4 °F -23.8 °F 76% 30.22 in 10.0 mi SSW 4.6 mph - N/A   Mostly Cloudy
8:15 AM -18.4 °F -33.4 °F -22.0 °F 84% 30.22 in 10.0 mi SSW 5.8 mph - N/A   Mostly Cloudy
8:35 AM -16.6 °F -32.9 °F -22.0 °F 76% 30.22 in 10.0 mi SSW 6.9 mph - N/A   Overcast
8:55 AM -18.4 °F -36.6 °F -22.0 °F 84% 30.23 in 10.0 mi SSW 8.1 mph - N/A   Mostly Cloudy
9:15 AM -13.0 °F -28.6 °F -18.4 °F 77% 30.23 in 10.0 mi South 6.9 mph - N/A   Clear
9:35 AM -13.0 °F -27.0 °F -18.4 °F 77% 30.23 in 10.0 mi SSW 5.8 mph - N/A   Clear
9:55 AM -11.2 °F -23.0 °F -16.6 °F 77% 30.23 in 10.0 mi SSW 4.6 mph - N/A   Clear
10:15 AM -11.2 °F -20.6 °F -16.6 °F 77% 30.23 in 10.0 mi South 3.5 mph - N/A   Clear
10:35 AM -9.4 °F -20.9 °F -14.8 °F 77% 30.23 in 10.0 mi SSW 4.6 mph - N/A   Clear
10:55 AM -7.6 °F -20.6 °F -13.0 °F 77% 30.23 in 10.0 mi SSW 5.8 mph - N/A   Partly Cloudy
11:15 AM -5.8 °F -18.4 °F -9.4 °F 84% 30.22 in 10.0 mi SSW 5.8 mph - N/A   Partly Cloudy
11:35 AM -4.0 °F -14.6 °F -9.4 °F 78% 30.22 in 10.0 mi South 4.6 mph - N/A   Clear
11:55 AM -4.0 °F -14.6 °F -7.6 °F 85% 30.21 in 10.0 mi SSW 4.6 mph - N/A   Partly Cloudy
12:35 PM -2.2 °F -12.5 °F -5.8 °F 85% 30.19 in 10.0 mi SSW 4.6 mph - N/A   Mostly Cloudy
12:55 PM -0.4 °F -10.4 °F -4.0 °F 85% 30.18 in 10.0 mi SSW 4.6 mph - N/A   Partly Cloudy
1:15 PM -0.4 °F -8.3 °F -4.0 °F 85% 30.18 in 10.0 mi SSW 3.5 mph - N/A   Clear
1:35 PM -0.4 °F - -4.0 °F 85% 30.17 in 10.0 mi Calm Calm - N/A   Clear
1:55 PM -0.4 °F -8.3 °F -4.0 °F 85% 30.17 in 10.0 mi South 3.5 mph - N/A   Clear
2:15 PM 1.4 °F - -0.4 °F 92% 30.16 in 10.0 mi Calm Calm - N/A   Clear
2:35 PM -0.4 °F -10.4 °F -2.2 °F 92% 30.15 in 10.0 mi ESE 4.6 mph - N/A   Clear
2:55 PM -0.4 °F -13.4 °F -2.2 °F 92% 30.15 in 10.0 mi SE 6.9 mph - N/A   Clear
3:15 PM -0.4 °F -8.3 °F -2.2 °F 92% 30.15 in 10.0 mi SE 3.5 mph - N/A   Clear
3:35 PM -0.4 °F - -4.0 °F 85% 30.16 in 10.0 mi Calm Calm - N/A   Clear
3:55 PM -0.4 °F - -4.0 °F 85% 30.15 in 10.0 mi Calm Calm - N/A   Clear
4:15 PM -2.2 °F - -7.6 °F 78% 30.15 in 10.0 mi Calm Calm - N/A   Clear
4:35 PM -4.0 °F - -9.4 °F 78% 30.16 in 10.0 mi Calm Calm - N/A   Clear
4:55 PM -7.6 °F - -11.2 °F 84% 30.15 in 10.0 mi Calm Calm - N/A   Clear
5:15 PM -9.4 °F - -13.0 °F 84% 30.16 in 10.0 mi Calm Calm - N/A   Clear
5:35 PM -7.6 °F -16.5 °F -11.2 °F 84% 30.17 in 10.0 mi ENE 3.5 mph - N/A   Mostly Cloudy
5:55 PM -9.4 °F - -13.0 °F 84% 30.17 in 10.0 mi Calm Calm - N/A   Overcast
6:15 PM -7.6 °F - -11.2 °F 84% 30.16 in 10.0 mi Calm Calm - N/A Snow Light Snow
6:35 PM -4.0 °F - -9.4 °F 78% 30.16 in 10.0 mi Calm Calm - N/A   Overcast
6:55 PM -4.0 °F - -7.6 °F 85% 30.16 in 10.0 mi Calm Calm - N/A   Overcast
7:15 PM -2.2 °F - -7.6 °F 78% 30.16 in 10.0 mi Calm Calm - N/A   Overcast
7:35 PM -2.2 °F - -7.6 °F 78% 30.16 in 10.0 mi Calm Calm - N/A   Overcast
7:55 PM -2.2 °F - -5.8 °F 85% 30.16 in 10.0 mi Calm Calm - N/A   Overcast
8:15 PM -2.2 °F - -4.0 °F 92% 30.16 in 10.0 mi Calm Calm - N/A   Overcast
8:35 PM -0.4 °F - -4.0 °F 85% 30.15 in 10.0 mi Calm Calm - N/A   Overcast
8:55 PM -0.4 °F - -4.0 °F 85% 30.15 in 10.0 mi Calm Calm - N/A   Overcast
9:15 PM -0.4 °F - -2.2 °F 92% 30.15 in 10.0 mi Calm Calm - N/A   Overcast
9:35 PM -0.4 °F - -2.2 °F 92% 30.15 in 10.0 mi Calm Calm - N/A   Overcast
9:55 PM -0.4 °F - -2.2 °F 92% 30.14 in 10.0 mi Calm Calm - N/A   Overcast
10:15 PM 1.4 °F - -0.4 °F 92% 30.15 in 10.0 mi Calm Calm - N/A   Overcast
10:35 PM 1.4 °F -6.2 °F -0.4 °F 92% 30.15 in 10.0 mi SE 3.5 mph - N/A   Overcast
10:55 PM 1.4 °F -8.3 °F -0.4 °F 92% 30.15 in 10.0 mi SSE 4.6 mph - N/A Snow Light Snow
11:15 PM 1.4 °F -12.5 °F -0.4 °F 92% 30.15 in 10.0 mi SSE 8.1 mph - N/A Snow Light Snow
11:35 PM 3.2 °F -9.1 °F 1.4 °F 92% 30.15 in 10.0 mi SSE 6.9 mph - N/A Snow Light Snow
11:55 PM 3.2 °F -7.8 °F 1.4 °F 92% 30.15 in 10.0 mi SSE 5.8 mph - N/A Snow Light Snow